Flag for U.S.A. Weather past 2 weeks in Leawood, Kansas, U.S.A.

Now
65 °F

Sunny.


Feels Like: 65 °F
Forecast: 44 / 71 °F
Wind: 18 mph from South

Location: Johnson County Executive Airport

Current Time: Jan 28, 2015 at 1:05:45 PM

Latest Report: Jan 28, 2015 at 11:53 AM


Visibility: 10 mi

Pressure: 29.84 "Hg

Humidity: 39%

Dew point: 39 °F

Location of LeawoodLocation

Historic Weather in Leawood — Graph

°F

Leawood temperature yesterday

Maximum temperature yesterday: 57 °F (at 2:53 PM)
Minimum temperature yesterday: 33 °F (at 6:53 AM)
Average temperature yesterday: 45 °F

Past Weeks' High & Low Weather Summary

 TemperatureHumidityPressure
High65 °F (Jan 28, 11:53 AM)96% (Jan 23, 3:53 AM)30.63 "Hg (Jan 23, 3:53 AM)
Low20 °F (Jan 14, 4:53 AM)23% (Jan 19, 1:53 PM)29.64 "Hg (Jan 25, 3:53 AM)
Average39 °F61%30.09 "Hg
* Reported Jan 13 11:53 AM — Jan 28 11:53 AM, Leawood, Weather by CustomWeather, © 2014

Note: Actual official high and low records may vary slightly from our data, if they occured in-between our weather recording intervals... More about our weather records

Advertising

Leawood weather history for previous 24 hours

 ConditionsComfort  
Time TempWeatherWind HumidityBarometerVisibility
11:53 AM
Jan 28
65 °FSunny.18 mph39%29.84 "Hg10 mi
10:53 AM59 °FSunny.14 mph46%29.89 "Hg10 mi
9:53 AM55 °FSunny.12 mph51%29.92 "Hg10 mi
8:53 AM46 °FSunny.13 mph63%29.92 "Hg10 mi
7:53 AM39 °FSunny.8 mph73%29.95 "Hg10 mi
6:53 AM38 °FClear.9 mph76%29.96 "Hg10 mi
5:53 AM39 °FClear.10 mph70%29.95 "Hg10 mi
4:53 AM40 °FClear.13 mph68%29.96 "Hg10 mi
3:53 AM40 °FClear.13 mph68%29.97 "Hg10 mi
2:53 AM43 °FClear.15 mph60%29.98 "Hg10 mi
1:53 AM42 °FClear.12 mph62%30.00 "Hg10 mi
12:53 AM42 °FClear.13 mph62%30.02 "Hg10 mi
11:53 PM
Jan 27
43 °FClear.10 mph60%30.05 "Hg10 mi
10:53 PM43 °FClear.9 mph62%30.06 "Hg10 mi
9:53 PM43 °FClear.9 mph62%30.07 "Hg10 mi
8:53 PM44 °FClear.7 mph60%30.09 "Hg10 mi
7:53 PM46 °FClear.7 mph56%30.10 "Hg10 mi
6:53 PM48 °FClear.6 mph52%30.10 "Hg10 mi
5:53 PM50 °FClear.7 mph50%30.08 "Hg10 mi
4:53 PM55 °FSunny.8 mph42%30.08 "Hg10 mi
3:53 PM57 °FSunny.9 mph41%30.08 "Hg10 mi
2:53 PM57 °FSunny.8 mph39%30.09 "Hg10 mi
1:53 PM54 °FSunny.7 mph43%30.10 "Hg10 mi
Weather by CustomWeather, © 2014

See weather overviewHow to use our weather pages